Osceola Municipal, IA

5:09 PM CDT on March 28, 2017 (GMT -0500)
Osceola Municipal

Weather History for KI75 - March, 2014

Change the Weather History Date:

Monday, March 3, 2014

  Actual Average (KCNC) Record (KCNC)
Temperature  
Mean Temperature 5 °F -  
Max Temperature 18 °F 45 °F 79 °F (1983)
Min Temperature -8 °F 25 °F -7 °F (2014)
Degree Days  
Heating Degree Days 60    
Moisture  
Dew Point -7 °F    
Average Humidity 58    
Maximum Humidity 75    
Minimum Humidity 41    
Precipitation  
Precipitation 0.00 in - - ()
Sea Level Pressure  
Sea Level Pressure 30.40 in    
Wind  
Wind Speed 7 mph (South)    
Max Wind Speed 15 mph    
Max Gust Speed -    
Visibility 10 miles    
Events      
Averages and records for this station are not official NWS values.
T = Trace of Precipitation, MM = Missing Value Source: NWS Daily Summary

Daily Weather History Graph

Daily Weather History Graph

Search for Another Location

Airport or City:

Trip Planner

Search our weather history database for the weather conditions in past years. The results will help you decide how hot, cold, wet, or windy it might be!

Date:

Astronomy

Mar. 03, 2014 Rise Set
Actual Time 6:45 AM CST 6:08 PM CST
Civil Twilight 6:18 AM CST 6:35 PM CST
Nautical Twilight 5:46 AM CST 7:07 PM CST
Astronomical Twilight 5:14 AM CST 7:39 PM CST
Moon 7:53 AM CST (3/3) 9:13 PM CST (3/3)
Length of Visible Light 12h 17m
Length of Day
11h 22m
Waxing Crescent, 8% of the Moon is Illuminated
Mar 3
Waxing Crescent
Mar 8
First Quarter
Mar 16
Full
Mar 23
Last Quarter
Mar 30
New

Hourly Weather History & Observations

Time (CST) Temp. Windchill Dew Point Humidity Pressure Visibility Wind Dir Wind Speed Gust Speed Precip Events Conditions
12:15 AM -5.8 °F -21.2 °F -13.9 °F 68% 30.52 in 10.0 mi NW 8.1 mph - N/A   Clear
12:35 AM -5.8 °F -21.2 °F -13.7 °F 69% 30.52 in 10.0 mi NW 8.1 mph - N/A   Clear
12:55 AM -5.8 °F -23.4 °F -13.5 °F 69% 30.52 in 10.0 mi NW 10.4 mph - N/A   Clear
1:15 AM -6.2 °F -20.4 °F -13.9 °F 69% 30.51 in 10.0 mi NW 6.9 mph - N/A   Clear
1:35 AM -6.3 °F -21.9 °F -13.9 °F 70% 30.51 in 10.0 mi NW 8.1 mph - N/A   Clear
1:55 AM -6.2 °F -22.8 °F -13.5 °F 70% 30.50 in 10.0 mi NW 9.2 mph - N/A   Clear
2:10 AM -6.0 °F -21.5 °F -13.5 °F 70% 30.50 in 10.0 mi NW 8.1 mph - N/A   Clear
2:35 AM -6.0 °F -21.5 °F -13.4 °F 70% 30.49 in 10.0 mi NW 8.1 mph - N/A   Clear
2:55 AM -5.8 °F -21.2 °F -13.5 °F 69% 30.48 in 10.0 mi NW 8.1 mph - N/A   Clear
3:15 AM -6.0 °F -22.6 °F -13.5 °F 70% 30.49 in 10.0 mi NNW 9.2 mph - N/A   Clear
3:35 AM -6.0 °F -21.5 °F -13.5 °F 70% 30.48 in 10.0 mi NNW 8.1 mph - N/A   Clear
3:55 AM -6.2 °F -20.4 °F -13.5 °F 70% 30.48 in 10.0 mi NNW 6.9 mph - N/A   Clear
4:15 AM -6.3 °F -19.1 °F -13.5 °F 71% 30.48 in 10.0 mi NW 5.8 mph - N/A   Clear
4:35 AM -6.7 °F -15.5 °F -13.7 °F 72% 30.49 in 10.0 mi NW 3.5 mph - N/A   Clear
4:55 AM -7.2 °F -18.3 °F -14.1 °F 72% 30.49 in 10.0 mi NNW 4.6 mph - N/A   Clear
5:15 AM -7.6 °F -18.8 °F -14.1 °F 73% 30.49 in 10.0 mi NNW 4.6 mph - N/A   Clear
5:35 AM -8.1 °F -19.4 °F -14.4 °F 74% 30.49 in 10.0 mi NNW 4.6 mph - N/A   Clear
5:55 AM -7.8 °F -16.7 °F -14.1 °F 74% 30.49 in 10.0 mi NNW 3.5 mph - N/A   Clear
6:15 AM -8.0 °F -16.9 °F -14.1 °F 75% 30.49 in 10.0 mi North 3.5 mph - N/A   Clear
6:35 AM -8.0 °F -16.9 °F -14.1 °F 75% 30.49 in 10.0 mi NNW 3.5 mph - N/A   Clear
6:55 AM -8.0 °F - -14.1 °F 75% 30.48 in 10.0 mi Calm Calm - N/A   Clear
7:15 AM -7.8 °F -19.0 °F -14.1 °F 74% 30.48 in 10.0 mi WNW 4.6 mph - N/A   Clear
7:35 AM -6.9 °F - -13.5 °F 73% 30.49 in 10.0 mi Calm Calm - N/A   Clear
7:55 AM -5.3 °F -13.8 °F -12.6 °F 70% 30.48 in 10.0 mi NNW 3.5 mph - N/A   Clear
8:15 AM -3.5 °F -11.8 °F -11.4 °F 69% 30.49 in 10.0 mi NNW 3.5 mph - N/A   Clear
8:35 AM -1.8 °F -9.9 °F -10.7 °F 66% 30.49 in 10.0 mi NE 3.5 mph - N/A   Clear
8:55 AM -0.8 °F -8.7 °F -10.1 °F 65% 30.50 in 10.0 mi NE 3.5 mph - N/A   Clear
9:15 AM 0.3 °F -7.5 °F -9.6 °F 63% 30.49 in 10.0 mi ENE 3.5 mph - N/A   Clear
9:35 AM 2.3 °F - -9.2 °F 59% 30.49 in 10.0 mi Calm Calm - N/A   Clear
9:55 AM 3.7 °F -3.6 °F -8.3 °F 57% 30.50 in 10.0 mi East 3.5 mph - N/A   Clear
10:15 AM 3.7 °F -3.6 °F -8.3 °F 57% 30.49 in 10.0 mi South 3.5 mph - N/A   Clear
10:35 AM 5.7 °F -1.3 °F -6.7 °F 57% 30.48 in 10.0 mi ESE 3.5 mph - N/A   Clear
10:55 AM 6.8 °F -2.0 °F -6.7 °F 54% 30.48 in 10.0 mi SSE 4.6 mph - N/A   Clear
11:15 AM 8.8 °F - -5.8 °F 52% 30.48 in 10.0 mi Calm Calm - N/A   Clear
11:35 AM 10.2 °F -0.6 °F -5.1 °F 50% 30.46 in 10.0 mi SSE 6.9 mph - N/A   Clear
11:55 AM 10.8 °F 2.7 °F -5.3 °F 49% 30.46 in 10.0 mi SSE 4.6 mph - N/A   Clear
12:15 PM 11.8 °F 1.3 °F -4.7 °F 48% 30.46 in 10.0 mi South 6.9 mph - N/A   Clear
12:35 PM 12.2 °F 2.9 °F -4.9 °F 46% 30.45 in 10.0 mi SSE 5.8 mph - N/A   Clear
12:55 PM 13.1 °F 4.0 °F -4.0 °F 47% 30.43 in 10.0 mi SSE 5.8 mph - N/A   Clear
1:15 PM 14.0 °F 3.9 °F -3.3 °F 46% 30.42 in 10.0 mi South 6.9 mph - N/A   Clear
1:35 PM 14.7 °F 5.9 °F -3.1 °F 45% 30.42 in 10.0 mi SSE 5.8 mph - N/A   Clear
1:55 PM 15.1 °F 7.7 °F -3.3 °F 44% 30.41 in 10.0 mi South 4.6 mph - N/A   Clear
2:15 PM 16.2 °F 5.5 °F -2.6 °F 44% 30.39 in 10.0 mi South 8.1 mph - N/A   Clear
2:35 PM 16.3 °F 4.1 °F -2.7 °F 43% 30.39 in 10.0 mi SSE 10.4 mph - N/A   Clear
2:55 PM 16.5 °F 5.1 °F -3.3 °F 42% 30.38 in 10.0 mi South 9.2 mph - N/A   Clear
3:15 PM 16.0 °F 5.3 °F -3.1 °F 43% 30.37 in 10.0 mi South 8.1 mph - N/A   Clear
3:35 PM 16.5 °F 5.1 °F -2.9 °F 42% 30.36 in 10.0 mi South 9.2 mph - N/A   Clear
3:55 PM 18.0 °F 6.9 °F -2.0 °F 41% 30.35 in 10.0 mi South 9.2 mph - N/A   Clear
4:15 PM 17.6 °F 6.4 °F -1.3 °F 44% 30.34 in 10.0 mi SSE 9.2 mph - N/A   Clear
4:35 PM 17.1 °F 5.8 °F -1.5 °F 44% 30.33 in 10.0 mi South 9.2 mph - N/A   Clear
4:55 PM 16.2 °F 3.9 °F -1.1 °F 47% 30.32 in 10.0 mi South 10.4 mph - N/A   Clear
5:15 PM 16.2 °F 3.2 °F -2.6 °F 44% 30.31 in 10.0 mi SSE 11.5 mph - N/A   Clear
5:35 PM 15.6 °F 3.2 °F -2.4 °F 45% 30.31 in 10.0 mi SSE 10.4 mph - N/A   Clear
5:55 PM 15.1 °F 1.8 °F -3.6 °F 43% 30.30 in 10.0 mi SSE 11.5 mph - N/A   Clear
6:15 PM 14.5 °F 0.5 °F -4.7 °F 42% 30.28 in 10.0 mi SSE 12.7 mph - N/A   Scattered Clouds
6:35 PM 14.0 °F 0.5 °F -4.2 °F 44% 30.27 in 10.0 mi SSE 11.5 mph - N/A   Scattered Clouds
6:55 PM 14.0 °F 2.9 °F -2.9 °F 47% 30.27 in 10.0 mi SSE 8.1 mph - N/A   Mostly Cloudy
7:15 PM 13.8 °F -0.5 °F -1.1 °F 52% 30.25 in 10.0 mi SE 12.7 mph - N/A   Scattered Clouds
7:35 PM 13.5 °F -0.9 °F -0.6 °F 54% 30.24 in 10.0 mi SSE 12.7 mph - N/A   Scattered Clouds
7:55 PM 13.1 °F -2.6 °F 0.1 °F 56% 30.23 in 10.0 mi SSE 15.0 mph - N/A   Mostly Cloudy
8:15 PM 13.5 °F 0.5 °F -2.0 °F 50% 30.28 in 10.0 mi South 10.4 mph - N/A   Overcast
8:35 PM 13.5 °F 2.2 °F -2.0 °F 50% 30.29 in 10.0 mi South 8.1 mph - N/A   Overcast
8:55 PM 12.9 °F 2.6 °F -2.0 °F 51% 30.29 in 10.0 mi South 6.9 mph - N/A   Mostly Cloudy
9:15 PM 12.9 °F -0.9 °F -2.2 °F 51% 30.27 in 10.0 mi SSE 11.5 mph - N/A   Overcast
9:35 PM 12.7 °F 0.4 °F -1.1 °F 54% 30.25 in 10.0 mi SSE 9.2 mph - N/A   Overcast
9:55 PM 12.6 °F 0.2 °F -1.5 °F 54% 30.26 in 10.0 mi SSE 9.2 mph - N/A   Mostly Cloudy
10:15 PM 12.7 °F 0.4 °F -0.6 °F 55% 30.26 in 10.0 mi SSE 9.2 mph - N/A   Mostly Cloudy
10:35 PM 12.6 °F 1.1 °F -0.8 °F 55% 30.27 in 10.0 mi South 8.1 mph - N/A   Overcast
10:55 PM 12.6 °F 0.2 °F -1.5 °F 54% 30.26 in 10.0 mi South 9.2 mph - N/A   Overcast
11:15 PM 12.0 °F 2.7 °F -1.1 °F 56% 30.25 in 10.0 mi South 5.8 mph - N/A   Overcast
11:35 PM 12.2 °F -0.2 °F -0.8 °F 56% 30.23 in 10.0 mi South 9.2 mph - N/A   Overcast
11:55 PM 12.2 °F -0.2 °F -0.4 °F 57% 30.22 in 10.0 mi South 9.2 mph - N/A   Overcast